China Lake, CA

10:00 AM PST on November 20, 2017 (GMT -0800)
China Lake NAWS

Weather History for KNID - September, 2013

Change the Weather History Date:

Tuesday, September 3, 2013

  Actual Average Record
Temperature  
Mean Temperature 93 °F -  
Max Temperature 105 °F 94 °F 108 °F (2007)
Min Temperature 82 °F 66 °F 53 °F (1999)
Cooling Degree Days 28    
Growing Degree Days 43 (Base 50)    
Moisture  
Dew Point 53 °F    
Average Humidity 27    
Maximum Humidity 39    
Minimum Humidity 16    
Precipitation  
Precipitation 0.00 in - - ()
Sea Level Pressure  
Sea Level Pressure 29.83 in    
Wind  
Wind Speed 10 mph (South)    
Max Wind Speed 20 mph    
Max Gust Speed 24 mph    
Visibility 10 miles    
Events      
Averages and records for this station are not official NWS values.
T = Trace of Precipitation, MM = Missing Value Source: NWS Daily Summary

Daily Weather History Graph

Daily Weather History Graph

Search for Another Location

Airport or City:

Trip Planner

Search our weather history database for the weather conditions in past years. The results will help you decide how hot, cold, wet, or windy it might be!

Date:

Astronomy

Sep. 03, 2013 Rise Set
Actual Time 6:24 AM PDT 7:14 PM PDT
Civil Twilight 5:58 AM PDT 7:40 PM PDT
Nautical Twilight 5:27 AM PDT 8:11 PM PDT
Astronomical Twilight 4:56 AM PDT 8:42 PM PDT
Moon 4:44 AM PDT (9/3) 6:04 PM PDT (9/3)
Length of Visible Light 13h 42m
Length of Day
12h 50m
Waning Crescent, 3% of the Moon is Illuminated
Sep 3
Waning Crescent
Sep 5
New
Sep 12
First Quarter
Sep 19
Full
Sep 26
Last Quarter

Hourly Weather History & Observations

Time (PDT) Temp. Heat Index Dew Point Humidity Pressure Visibility Wind Dir Wind Speed Gust Speed Precip Events Conditions
12:56 AM 88.0 °F 86.1 °F 55.0 °F 32% 29.81 in 10.0 mi SSW 12.7 mph - N/A   Overcast
1:56 AM 87.1 °F 85.9 °F 57.0 °F 36% 29.81 in 10.0 mi South 10.4 mph - N/A   Scattered Clouds
2:56 AM 86.0 °F 84.7 °F 55.9 °F 36% 29.81 in 10.0 mi South 12.7 mph - N/A   Clear
3:56 AM 84.9 °F 83.7 °F 55.9 °F 37% 29.81 in 10.0 mi South 6.9 mph - N/A   Partly Cloudy
4:56 AM 84.0 °F 82.9 °F 55.0 °F 37% 29.82 in 10.0 mi South 5.8 mph - N/A   Mostly Cloudy
5:56 AM 82.9 °F 82.1 °F 55.9 °F 39% 29.83 in 10.0 mi South 9.2 mph - N/A   Mostly Cloudy
6:56 AM 82.9 °F 82.0 °F 55.0 °F 38% 29.86 in 10.0 mi SSW 9.2 mph - N/A   Mostly Cloudy
7:56 AM 86.0 °F 84.7 °F 55.9 °F 36% 29.88 in 10.0 mi South 8.1 mph - N/A   Clear
8:56 AM 89.1 °F 87.3 °F 55.9 °F 32% 29.88 in 10.0 mi South 5.8 mph - N/A   Mostly Cloudy
9:56 AM 93.9 °F 92.0 °F 55.0 °F 27% 29.89 in 10.0 mi Variable 3.5 mph - N/A   Mostly Cloudy
10:56 AM 97.0 °F 95.0 °F 55.0 °F 24% 29.89 in 10.0 mi Calm Calm - N/A   Mostly Cloudy
11:56 AM 100.9 °F - 48.9 °F 17% 29.87 in 10.0 mi SE 11.5 mph 20.7 mph N/A   Scattered Clouds
12:56 PM 102.9 °F - 50.0 °F 17% 29.85 in 10.0 mi SSE 13.8 mph - N/A   Partly Cloudy
1:56 PM 104.0 °F - 50.0 °F 16% 29.83 in 10.0 mi South 13.8 mph 21.9 mph N/A   Partly Cloudy
2:56 PM 104.0 °F - 51.1 °F 17% 29.81 in 10.0 mi SSE 13.8 mph 21.9 mph N/A   Scattered Clouds
3:56 PM 104.0 °F - 51.1 °F 17% 29.79 in 10.0 mi SSE 15.0 mph 23.0 mph N/A   Scattered Clouds
4:56 PM 104.0 °F - 51.1 °F 17% 29.77 in 10.0 mi SSE 19.6 mph 24.2 mph N/A   Scattered Clouds
5:56 PM 102.9 °F - 50.0 °F 17% 29.77 in 10.0 mi South 17.3 mph 23.0 mph N/A   Scattered Clouds
6:56 PM 99.0 °F - 50.0 °F 19% 29.78 in 10.0 mi South 16.1 mph - N/A   Partly Cloudy
7:56 PM 96.1 °F - 51.1 °F 22% 29.81 in 10.0 mi SW 9.2 mph - N/A   Partly Cloudy
8:56 PM 91.9 °F - 52.0 °F 26% 29.83 in 10.0 mi Calm Calm - N/A   Partly Cloudy
9:56 PM 90.0 °F - 52.0 °F 27% 29.85 in 10.0 mi South 5.8 mph - N/A   Partly Cloudy
10:56 PM 87.1 °F 85.3 °F 55.0 °F 33% 29.85 in 10.0 mi South 10.4 mph - N/A   Partly Cloudy
11:56 PM 86.0 °F 84.2 °F 54.0 °F 33% 29.86 in 10.0 mi SSW 10.4 mph - N/A   Unknown